User: anonymous   Login
Location: State Camp
(41.2367°N, 77.7828°W)
Time: 20:17:51
(UTC-04:00)
Language:

Cosmos 1674 Rocket - Orbit

View from above orbital plane
View from above orbital plane
View from above satellite
View from above satellite

Ground track
Ground track

The orbit data is extracted from the following two-line orbital elements,

1 15945U 85069B   15089.19257176  .00000689  00000-0  80218-4 0  9999
2 15945 082.5300 171.4745 0021358 076.3415 284.0176 14.83647396600913
Epoch (UTC): 30 March 2015 04:37:18
Eccentricity: 0.0021358
inclination: 82.5300°
perigee height: 603 km
apogee height: 633 km
right ascension of ascending node: 171.4745°
argument of perigee: 76.3415°
revolutions per day: 14.83647396
mean anomaly at epoch: 284.0176°
orbit number at epoch: 60091

The dashed part of the orbit path shows where the satellite is in the earth's shadow,  

DLR